NOAA 16 DEB, 41243

Orbit data source: Space-Track

NOAA 16 DEB, 41243 is space debris in SSO originally from a launch on Thu, 21 Sep 2000 UTC launched from the Air Force Western Test Range (AFWTR). Debris objects in space refer to the collection of defunct objects orbiting the Earth. Examples of debris include non-operational satellites, rocket bodies, and fragments generated from explosions, collisions, or faulty payload assembly.

Loading next visibility...
Identifier
41243, 2000-055ET
Orbit
SSO
Country
Flag of USUS
Related business
Manufacturer
Unknown
Mission
Spacecraft
Bus & Motor
Unknown
Mass
Unknown
Launch date (UTC)
2000-09-21 (25 years ago)
Launch vehicle
Unknown
Launch site
Air Force Western Test Range (AFWTR)
Object type
Payload
Rocket body
Debris
Shape & HBR
Unknown shape, 0.1 m
Radar Cross Section
Small (<0.1 m²)

Expand to show TLE details & history
Last TLE update: 2 days ago

TLE from 2 days ago
0 NOAA 16 DEB
1 41243U 00055ET  25309.66011614  .00004253  00000-0  17787-2 0  9994
2 41243  98.7368  28.4712 0001854 341.1509  18.9602 14.26620646508255
Epoch: 2025-11-05T15:50Z
TLE epoch observation values (Epoch: 2025-11-05T15:50:34.034Z)
Latitude
-0.00004°
Longitude
105.6998°
Altitude
804.712 km
Speed
7.452 km/s
True Right ascension
01h 53m 53s
True Declination
0° 00' 00"
Sunlit
Object was in full shadow at epoch
Visualization orbit readout
Latitude
Unknown
Longitude
Unknown
Altitude
Unknown
Speed
Unknown
Apparent Right ascension
Unknown
Apparent Declination
Unknown
Sunlit
N/A
Visualization observer readout
Local Sidereal Time
17:27:27
Azimuth
Unknown
Elevation
Unknown
Doppler factor
Unknown
Orbital elements
Apogee altitude
801.531 km
Perigee altitude
798.869 km
Semi-major axis
7,178.337 km
Eccentricity
0.00019
Inclination
98.7368°
RAAN
28.4712°
Arg. of periapsis
341.1509°
True anomaly
18.9671°
Mean anomaly
18.9602°
Eccentric anomaly
18.96365°
Mean motion
3.56868 °/min
Orbital period
100.88 mins
BSTAR
0.0017787
Loading maneuver chart data...
Computing Atmospheric mass density...
Loading historical data...
Loading historical data...
Loading historical data...
Loading historical data...
Loading historical data...
Loading historical data...
Loading historical data...

Documentation

Showing up to 5 results
|